Printer-friendly version

IAU Minor Planet Center

Minor Planet Center

MPEC 2005-R44 : 2005 RR6

The following Minor Planet Electronic Circular may be linked-to from your own Web pages, but must not otherwise be redistributed electronically.


Read MPEC 2005-R43 Read MPEC 2005-R45


M.P.E.C. 2005-R44                                Issued 2005 Sept. 10, 02:01 UT

     The Minor Planet Electronic Circulars contain information on unusual
         minor planets and routine data on comets.  They are published
   on behalf of Commission 20 of the International Astronomical Union by the
          Minor Planet Center, Smithsonian Astrophysical Observatory,
                          Cambridge, MA 02138, U.S.A.

                  Supported in part by the Brinson Foundation
             Prepared using the Tamkin Foundation Computer Network

                              MPC@CFA.HARVARD.EDU
          URL http://cfa-www.harvard.edu/iau/mpc.html  ISSN 1523-6714

                                   2005 RR6

Observations:
     K05R06R*2C2005 09 04.56421806 15 29.545+22 44 07.68                ER044568
     K05R06R 2C2005 09 04.57019706 15 31.896+22 44 10.85         20.1 R ER044568
     K05R06R 2C2005 09 06.56199206 28 46.800+22 59 10.57         20.7 R ER044568
     K05R06R 2C2005 09 06.56765506 28 49.048+22 59 12.89         20.6 R ER044568
     K05R06R 2C2005 09 06.57331706 28 51.302+22 59 15.23         20.7 R ER044568
     K05R06R 2C2005 09 06.58177106 28 54.680+22 59 18.71         20.7 R ER044568
     K05R06R 2C2005 09 06.58752406 28 56.967+22 59 21.05         20.8 R ER044568
     K05R06R 2C2005 09 06.59317706 28 59.242+22 59 23.40         20.5 R ER044568
     K05R06R 2C2005 09 06.63550706 29 16.072+22 59 40.58         20.6 R ER044568
     K05R06R 2C2005 09 06.63692806 29 16.635+22 59 41.16         20.3 R ER044568
     K05R06R 2C2005 09 06.63835206 29 17.207+22 59 41.75         20.6 R ER044568
     K05R06R  C2005 09 09.41982 06 47 58.14 +23 13 31.8          20.4 R ER044734
     K05R06R  C2005 09 09.43751 06 48 05.45 +23 13 34.6          20.7 R ER044734
     K05R06R  C2005 09 09.44340 06 48 07.71 +23 13 36.7          20.4 R ER044734
     K05R06R 2C2005 09 09.60160506 49 11.654+23 14 12.26         19.4 R ER044568
     K05R06R 2C2005 09 09.60290206 49 12.181+23 14 12.56         19.4 R ER044568
     K05R06R 2C2005 09 09.60417406 49 12.693+23 14 12.82         19.3 R ER044568
     K05R06R 2C2005 09 09.60547206 49 13.216+23 14 13.08         19.2 R ER044568
     K05R06R 2C2005 09 09.60805406 49 14.256+23 14 13.69         19.2 R ER044568
     K05R06R 2C2005 09 09.60932906 49 14.765+23 14 13.95         19.2 R ER044568
     K05R06R 2C2005 09 09.61062306 49 15.284+23 14 14.23         19.3 R ER044568
     K05R06R 2C2005 09 09.61190606 49 15.803+23 14 14.51         19.2 R ER044568

Observer details:
568 Mauna Kea.  Observers F. Bernardi, M.-B. Laychak, T. Georges.  Measurers
    F. Bernardi, D. J. Tholen.  3.6-m Canada-France-Hawaii Telescope, 8.2-m
    reflector.
734 Farpoint Observatory.  Observer G. Hug.  0.7-m reflector + CCD.

Orbital elements:
2005 RR6                                                             PHA 0.007
Epoch 2005 Aug. 18.0 TT = JDT 2453600.5                 MPC
M 348.57744              (2000.0)            P               Q
n   0.19828934     Peri.   52.61144     +0.06124103     -0.99532024
a   2.9125260      Node    34.10573     +0.86845846     +0.01622420
e   0.7066516      Incl.    7.66065     +0.49196488     +0.09525964
P   4.97           H   18.5           G   0.15           U   7
Residuals in seconds of arc
050904 568  0.0   0.0     050906 568  0.0   0.0     050909 568  0.1-  0.0
050904 568  0.1-  0.0     050906 568  0.1-  0.0     050909 568  0.1-  0.0
050906 568  0.0   0.0     050906 568  0.0   0.0     050909 568  0.0   0.0
050906 568  0.1-  0.0     050909 734  0.7+  0.4+    050909 568  0.1-  0.0
050906 568  0.2-  0.0     050909 734 (3.4+  0.9-)   050909 568  0.1-  0.0
050906 568  0.1-  0.0     050909 734  1.9+  0.1-    050909 568  0.0   0.0
050906 568  0.2-  0.0     050909 568  0.2-  0.0
050906 568  0.2+  0.0     050909 568  0.1-  0.0

Ephemeris:
2005 RR6                 a,e,i = 2.91, 0.71, 8                   q = 0.8544
Date    TT    R. A. (2000) Decl.     Delta      r     Elong.  Phase     V
2005 09 07    06 31.69   +23 02.0    0.836    1.029    67.1    64.4    20.5
2005 09 08    06 38.40   +23 07.5    0.835    1.021    66.6    64.8    20.4
2005 09 09    06 45.13   +23 12.0    0.834    1.013    66.0    65.2    20.4
2005 09 10    06 51.87   +23 15.5    0.834    1.005    65.4    65.6    20.4
2005 09 11    06 58.61   +23 17.8    0.834    0.998    64.9    66.0    20.4
2005 09 12    07 05.36   +23 19.1    0.834    0.990    64.3    66.3    20.4
2005 09 13    07 12.11   +23 19.3    0.835    0.983    63.7    66.6    20.4
2005 09 14    07 18.85   +23 18.4    0.836    0.976    63.2    66.9    20.4
2005 09 15    07 25.57   +23 16.4    0.838    0.968    62.6    67.2    20.4
2005 09 16    07 32.27   +23 13.3    0.839    0.961    62.1    67.5    20.4
2005 09 17    07 38.94   +23 09.2    0.842    0.955    61.5    67.7    20.4
2005 09 18    07 45.58   +23 04.0    0.844    0.948    61.0    67.9    20.4
2005 09 19    07 52.19   +22 57.7    0.847    0.942    60.4    68.1    20.4
2005 09 20    07 58.76   +22 50.5    0.850    0.935    59.9    68.3    20.4
2005 09 21    08 05.28   +22 42.2    0.853    0.929    59.4    68.4    20.4
2005 09 22    08 11.75   +22 33.0    0.857    0.923    58.9    68.5    20.4
2005 09 23    08 18.16   +22 22.8    0.861    0.918    58.4    68.6    20.4
2005 09 24    08 24.52   +22 11.7    0.866    0.912    57.9    68.6    20.4
2005 09 25    08 30.82   +21 59.8    0.870    0.907    57.4    68.7    20.4
2005 09 26    08 37.05   +21 46.9    0.875    0.902    56.9    68.7    20.4
2005 09 27    08 43.22   +21 33.3    0.880    0.897    56.5    68.6    20.4

Timothy B. Spahr             (C) Copyright 2005 MPC           M.P.E.C. 2005-R44

Read MPEC 2005-R43 Read MPEC 2005-R45


Our Web policy. Index to the CBAT/MPC/ICQ pages.


Valid HTML 4.01!